| Date | Temp | Humidity | Rainfall | Dew Point | Wind Direction | Wind Speed | Wind Pressure | Condition | Visibility |
|---|---|---|---|---|---|---|---|---|---|
| 2025-04-13 13:01:53 | 30 | 75 | 0.00 | 25 | 330 | 13.3 | 1010 | Partly Cloudy (Day) | 10KM |
| 2025-04-13 12:02:05 | 32 | 68 | 0.00 | 25 | 360 | 9.5 | 1011 | Partly Cloudy (Day) | 10KM |
| 2025-04-13 11:25:37 | 31 | 67 | 0.00 | 24 | 280 | 5.7 | 1011 | Partly Cloudy (Day) | 10KM |
| 2025-04-13 10:00:21 | 30 | 73 | 25 | 150 | 5.7 | 1012 | Partly Cloudy (Day) | 20 KM | |
| 2025-04-13 08:59:48 | 28 | 80 | 24 | 160 | 5.7 | 1012 | Partly Cloudy (Day) | 20 KM | |
| 2025-04-13 08:01:13 | 27 | 90 | 0.0 | 25 | 170 | 8 | 1011 | Partly Cloudy (Day) | 20 km |
| 2025-04-13 06:59:29 | 93 | 93 | 0.0 | 24 | 190 | 2 | 1010 | Partly Cloudy (Day) | 10 km |
| 2025-04-13 05:59:20 | 25 | 96 | 0.0 | 24 | 180 | 2 | 1010 | Partly Cloudy (Day) | 10 km |
| 2025-04-13 05:00:06 | 25 | 94 | 0.0 | 24 | 190 | 6 | 1009 | Partly Cloudy (Night) | 10 |
| 2025-04-13 03:59:50 | 25 | 94 | 0.0 | 24 | 190 | 4 | 1009 | Partly Cloudy (Night) | 10 km |
| 2025-04-13 03:02:27 | 25 | 95 | 0.0 | 24 | 200 | 6 | 1009 | Partly Cloudy (Night) | 10 km |
| 2025-04-13 01:00:31 | 26 | 91 | 0 | 24 | 170 | 5.7 | 1010 | Fair | 10 KM |
| 2025-04-12 23:59:31 | 26 | 93 | 0 | 25 | 230 | 1.9 | 1011 | Fair | 10 KM |
| 2025-04-12 22:59:07 | 26 | 93 | 0 | 25 | 080 | 1.9 | 1011 | Fair | 10 KM |
| 2025-04-12 21:59:54 | 26 | 93 | 0 | 25 | 100 | 1.9 | 1011 | Fair | 10 KM |
| 2025-04-12 20:58:12 | 27 | 93 | 25 | 100 | 3.8 | 1010 | Partly Cloudy (Night) | 10 km | |
| 2025-04-12 19:58:36 | 27 | 92 | 25 | 120 | 5.7 | 1010 | Partly Cloudy (Night) | 10 km | |
| 2025-04-12 19:00:30 | 28 | 81 | 25 | 050 | 1.9 | 1009 | Night Shower | 10 km | |
| 2025-04-12 17:58:41 | 29 | 76 | 24 | 330 | 9.5 | 1008 | Thundershowers | 10 km | |
| 2025-04-12 17:02:21 | 29 | 79 | 25 | 310 | 11.4 | 1008 | Showers | 10 KM | |
| 2025-04-12 16:02:54 | 29 | 76 | 25 | 310 | 13.3 | 1008 | Distant showers | 15 KM | |
| 2025-04-12 14:59:39 | 30 | 77 | 26 | 310 | 17.1 | 1008 | Distant showers | 15 KM | |
| 2025-04-12 14:05:58 | 30 | 75 | 290 | 20.9 | Partly Cloudy (Day) | ||||
| 2025-04-12 12:59:18 | 31 | 72 | 0 | 26 | 240 | 13.3 | 1009 | Partly Cloudy (Day) | 20 KM |
| 2025-04-12 11:59:32 | 32 | 63 | 0 | 24 | 210 | 17.1 | 1010 | Partly Cloudy (Day) | 20 KM |